OK2ZAW-16 Weather Reports


Display with metric or nautical units.
time (UTC)temp
F
wind
direction
speed
MPH
gust
MPH
rain 1hr
in
rain 24hr
in
rain mn
in
humidity
%
barometer
mb
20260905160720 54 0 6.0 12.0 0.00 0.00 0.00 81 1021.6
20260905160211 54 0 6.0 8.0 0.00 0.00 0.00 81 1021.5
20260905155702 54 0 7.0 18.0 0.00 0.00 0.00 81 1021.6
20260905155154 54 0 4.0 9.0 0.00 0.00 0.00 81 1021.5
20260905154645 54 0 6.0 13.0 0.00 0.00 0.00 81 1021.5
20260905154136 54 0 7.0 12.0 0.00 0.00 0.00 81 1021.3
20260905153627 54 0 5.0 8.0 0.00 0.00 0.00 82 1021.4
20260905153118 54 0 7.0 14.0 0.00 0.00 0.00 82 1021.4
20260905152609 54 0 6.0 0.0 0.00 0.00 0.00 82 1021.3
20260905152101 54 0 4.0 8.0 0.00 0.00 0.00 82 1021.4
20260905151552 54 0 4.0 6.0 0.00 0.00 0.00 82 1021.4
20260905151043 55 0 4.0 8.0 0.00 0.00 0.00 82 1021.4
20260905150534 55 0 4.0 7.0 0.00 0.00 0.00 82 1021.2
20260905150025 55 0 5.0 0.0 0.00 0.00 0.00 82 1021.2
20260905145516 55 0 5.0 0.0 0.00 0.00 0.00 83 1021.1
20260905144459 55 0 5.0 0.0 0.00 0.00 0.00 84 1021.1
20260905143950 55 0 6.0 0.0 0.00 0.00 0.00 84 1021.2
20260905143441 55 0 5.0 8.0 0.00 0.00 0.00 85 1021.0
20260905142932 55 0 4.0 7.0 0.00 0.00 0.00 85 1020.9
20260905142423 55 0 6.0 9.0 0.00 0.00 0.00 85 1021.0
20260905141914 55 0 6.0 14.0 0.00 0.00 0.00 86 1021.0
20260905141405 55 0 5.0 10.0 0.00 0.00 0.00 86 1021.0
20260905140857 55 0 5.0 10.0 0.00 0.00 0.00 87 1020.9
20260905140348 55 0 5.0 10.0 0.00 0.00 0.00 87 1021.1
20260905135839 55 0 4.0 7.0 0.00 0.00 0.00 88 1021.1
20260905135330 54 0 8.0 19.0 0.00 0.00 0.00 88 1021.0
20260905134821 54 0 5.0 8.0 0.00 0.00 0.00 89 1021.0
20260905134312 54 0 5.0 7.0 0.00 0.00 0.00 89 1020.9
20260905133803 54 0 8.0 13.0 0.00 0.00 0.00 88 1021.1
20260905133255 54 0 4.0 6.0 0.00 0.00 0.00 89 1021.0
20260905132746 54 0 4.0 8.0 0.00 0.00 0.00 90 1021.1
20260905131728 54 0 5.0 9.0 0.00 0.00 0.00 91 1021.1
20260905131219 53 0 5.0 8.0 0.00 0.00 0.00 92 1021.1
20260905130710 53 0 5.0 7.0 0.00 0.00 0.00 92 1021.2
20260905130202 53 0 4.0 7.0 0.00 0.00 0.00 92 1021.1
20260905125653 53 0 4.0 7.0 0.00 0.00 0.00 93 1021.1
20260905125144 52 0 4.0 5.0 0.00 0.00 0.00 93 1021.2
20260905124635 52 0 4.0 7.0 0.00 0.00 0.00 93 1021.2
20260905124126 52 0 3.0 7.0 0.00 0.00 0.00 92 1021.3
20260905123618 52 0 3.0 6.0 0.00 0.00 0.00 92 1021.3
20260905123109 52 0 4.0 9.0 0.00 0.00 0.00 92 1021.4
20260905122600 53 0 8.0 17.0 0.00 0.00 0.00 92 1021.3
20260905122051 53 0 4.0 8.0 0.00 0.00 0.00 93 1021.4
20260905121542 53 0 5.0 8.0 0.00 0.00 0.00 93 1021.5
20260905121034 53 0 5.0 8.0 0.00 0.00 0.00 94 1021.4
20260905120525 53 0 6.0 12.0 0.00 0.00 0.00 95 1021.3
20260905120016 53 0 4.0 10.0 0.00 0.00 0.00 95 1021.4
20260905115507 52 0 5.0 8.0 0.00 0.00 0.00 94 1021.3
20260905114958 52 0 4.0 7.0 0.00 0.00 0.00 94 1021.4
20260905114450 52 0 4.0 8.0 0.00 0.00 0.00 95 1021.2
20260905113941 52 0 4.0 9.0 0.00 0.00 0.00 95 1021.5
20260905113432 52 0 3.0 5.0 0.00 0.00 0.00 94 1021.5
20260905112923 52 0 4.0 7.0 0.00 0.00 0.00 94 1021.3
20260905112414 52 0 4.0 6.0 0.00 0.00 0.00 94 1021.4
20260905111906 52 0 4.0 8.0 0.00 0.00 0.00 94 1021.3
20260905111357 52 0 3.0 6.0 0.00 0.00 0.00 94 1021.2
20260905110848 52 0 4.0 7.0 0.00 0.00 0.00 94 1021.2
20260905105830 53 0 4.0 7.0 0.00 0.00 0.00 95 1021.2
20260905105322 52 0 4.0 7.0 0.00 0.00 0.00 95 1021.2
20260905104813 52 0 6.0 11.0 0.00 0.00 0.00 94 1021.1
20260905103755 53 0 3.0 6.0 0.00 0.00 0.00 94 1021.0
20260905103246 53 0 4.0 7.0 0.00 0.00 0.00 94 1021.0
20260905102229 53 0 4.0 8.0 0.00 0.00 0.00 95 1020.8
20260905101211 53 0 5.0 8.0 0.00 0.00 0.00 96 1021.0
20260905100702 53 0 4.0 7.0 0.00 0.00 0.00 96 1020.9
20260905100154 52 0 4.0 6.0 0.00 0.00 0.00 96 1020.8
20260905095136 52 0 4.0 9.0 0.00 0.00 0.00 96 1020.9
20260905094627 51 0 4.0 7.0 0.00 0.00 0.00 96 1020.9
20260905094118 51 0 4.0 7.0 0.00 0.00 0.00 95 1021.0
20260905093610 51 0 5.0 8.0 0.00 0.00 0.00 96 1021.0
20260905092552 50 0 6.0 10.0 0.00 0.00 0.00 95 1020.9
20260905092043 50 0 3.0 5.0 0.00 0.00 0.00 95 1020.8
20260905091535 50 0 3.0 7.0 0.00 0.00 0.00 95 1021.1
20260905091026 50 0 4.0 7.0 0.00 0.00 0.00 95 1021.0
20260905090008 50 0 3.0 5.0 0.00 0.00 0.00 95 1020.8
20260905084951 50 0 4.0 6.0 0.00 0.00 0.00 94 1020.9
20260905084442 50 0 4.0 5.0 0.00 0.00 0.00 94 1020.8
20260905083425 50 0 3.0 7.0 0.00 0.00 0.00 95 1020.5
20260905082916 50 0 3.0 6.0 0.00 0.00 0.00 95 1020.6
20260905082407 50 0 5.0 7.0 0.00 0.00 0.00 95 1020.4
20260905081858 50 0 4.0 7.0 0.00 0.00 0.00 95 1020.4
20260905081350 49 0 6.0 11.0 0.00 0.00 0.00 95 1020.4
20260905080841 49 0 4.0 6.0 0.00 0.00 0.00 95 1020.3
20260905080332 49 0 5.0 7.0 0.00 0.00 0.00 95 1020.3
20260905075824 49 0 4.0 7.0 0.00 0.00 0.00 95 1020.2
20260905075315 49 0 3.0 6.0 0.00 0.00 0.00 95 1020.2
20260905074806 49 0 5.0 8.0 0.00 0.00 0.00 95 1020.2
20260905074257 49 0 5.0 8.0 0.00 0.00 0.00 95 1020.0
20260905073749 49 0 4.0 8.0 0.00 0.00 0.00 95 1020.0
20260905073240 49 0 4.0 7.0 0.00 0.00 0.00 95 1020.1
20260905071715 49 0 4.0 8.0 0.00 0.00 0.00 95 1019.9
20260905071205 49 0 5.0 7.0 0.00 0.00 0.00 94 1019.8
20260905070148 48 0 4.0 6.0 0.00 0.00 0.00 94 1019.8
20260905065639 48 0 4.0 6.0 0.00 0.00 0.00 94 1019.9
20260905065130 48 0 3.0 5.0 0.00 0.00 0.00 94 1019.8
20260905064113 48 0 4.0 6.0 0.00 0.00 0.00 94 1019.7
20260905063604 48 0 4.0 7.0 0.00 0.00 0.00 94 1019.6
20260905063055 48 0 3.0 6.0 0.00 0.00 0.00 94 1019.4
20260905062547 48 0 4.0 6.0 0.00 0.00 0.00 94 1019.5
20260905062038 48 0 5.0 8.0 0.00 0.00 0.00 94 1019.4
20260905061529 48 0 4.0 7.0 0.00 0.00 0.00 94 1019.5
20260905061021 48 0 4.0 6.0 0.00 0.00 0.00 94 1019.4
20260905060003 48 0 4.0 5.0 0.00 0.00 0.00 94 1019.2
20260905055455 48 0 4.0 7.0 0.00 0.00 0.00 94 1019.3
20260905054946 48 0 4.0 0.0 0.00 0.00 0.00 94 1019.1
20260905054437 48 0 5.0 8.0 0.00 0.00 0.00 93 1019.0
20260905053928 48 0 4.0 6.0 0.00 0.00 0.00 93 1018.9
20260905053420 48 0 4.0 6.0 0.00 0.00 0.00 93 1018.9
20260905052402 48 0 4.0 6.0 0.00 0.00 0.00 93 1018.8
20260905051854 48 0 4.0 7.0 0.00 0.00 0.00 92 1018.9
20260905051345 49 0 4.0 6.0 0.00 0.00 0.00 92 1019.0
20260905050836 49 0 3.0 8.0 0.00 0.00 0.00 92 1018.9
20260905050328 49 0 5.0 7.0 0.00 0.00 0.00 92 1018.7
20260905045819 50 0 4.0 10.0 0.00 0.00 0.00 92 1018.7
20260905045310 50 0 3.0 6.0 0.00 0.00 0.00 92 1018.6
20260905044253 50 0 3.0 8.0 0.00 0.00 0.00 92 1018.4
20260905043744 50 0 3.0 6.0 0.00 0.00 0.00 92 1018.5
20260905043235 50 0 3.0 5.0 0.00 0.00 0.00 92 1018.5
20260905042726 50 0 2.0 3.0 0.00 0.00 0.00 92 1018.2
20260905042218 50 0 3.0 5.0 0.00 0.00 0.00 92 1018.2
20260905041709 50 0 3.0 7.0 0.00 0.00 0.00 92 1018.5
20260905041200 49 0 4.0 7.0 0.00 0.00 0.00 92 1018.6
20260905040651 49 0 3.0 5.0 0.00 0.00 0.00 92 1019.1
20260905040143 49 0 3.0 6.0 0.00 0.00 0.00 92 1018.7
20260905035634 49 0 4.0 9.0 0.00 0.00 0.00 92 1018.7
20260905034617 49 0 3.0 6.0 0.00 0.00 0.00 91 1018.7
20260905034108 49 0 3.0 6.0 0.00 0.00 0.00 91 1018.3
20260905033559 50 0 3.0 6.0 0.00 0.00 0.00 91 1018.0
20260905033050 50 0 4.0 7.0 0.00 0.00 0.00 91 1018.2
20260905032542 50 0 3.0 6.0 0.00 0.00 0.00 91 1018.4
20260905032033 50 0 4.0 7.0 0.00 0.00 0.00 91 1018.4
20260905031524 50 0 4.0 6.0 0.00 0.00 0.00 91 1018.4
20260905031015 50 0 4.0 7.0 0.00 0.00 0.00 91 1018.3
20260905030507 50 0 4.0 6.0 0.00 0.00 0.00 91 1018.2
20260905025958 50 0 4.0 12.0 0.00 0.00 0.00 90 1017.9
20260905025449 50 0 3.0 5.0 0.00 0.00 0.00 90 1018.1
20260905024940 51 0 3.0 5.0 0.00 0.00 0.00 90 1018.2
20260905024432 51 0 3.0 6.0 0.00 0.00 0.00 90 1018.2
20260905023923 51 0 3.0 5.0 0.00 0.00 0.00 90 1018.0
20260905023414 51 0 3.0 7.0 0.00 0.00 0.00 90 1018.1
20260905022905 51 0 3.0 6.0 0.00 0.00 0.00 90 1017.8
20260905022357 52 0 3.0 6.0 0.00 0.00 0.00 90 1017.8
20260905021339 52 0 3.0 6.0 0.00 0.00 0.00 90 1018.3
20260905020830 52 0 3.0 6.0 0.00 0.00 0.00 90 1017.9
20260905020321 52 0 3.0 5.0 0.00 0.00 0.00 90 1018.0
20260905015306 53 0 3.0 6.0 0.00 0.00 0.00 89 1017.6
20260905014755 53 0 3.0 6.0 0.00 0.00 0.00 89 1017.6
20260905014246 53 0 4.0 7.0 0.00 0.00 0.00 89 1017.6
20260905013737 53 0 4.0 7.0 0.00 0.00 0.00 89 1017.9
20260905013229 53 0 3.0 5.0 0.00 0.00 0.00 89 1017.9
20260905012720 53 0 3.0 5.0 0.00 0.00 0.00 89 1017.9
20260905012211 53 0 2.0 5.0 0.00 0.00 0.00 89 1017.7
20260905011153 53 0 3.0 5.0 0.00 0.00 0.00 89 1017.7
20260905010644 54 0 2.0 4.0 0.00 0.00 0.00 88 1017.8
20260905010136 54 0 3.0 4.0 0.00 0.00 0.00 88 1017.9
20260905005627 54 0 3.0 5.0 0.00 0.00 0.00 88 1017.6
20260905005118 54 0 3.0 5.0 0.00 0.00 0.00 88 1017.9
20260905004609 55 0 3.0 5.0 0.00 0.00 0.00 88 1018.0
20260905004100 55 0 3.0 5.0 0.00 0.00 0.00 88 1017.9
20260905003551 55 0 2.0 4.0 0.00 0.00 0.00 88 1017.8
20260905002025 55 0 3.0 5.0 0.00 0.00 0.00 88 1017.7
20260905001516 56 0 3.0 8.0 0.00 0.00 0.00 88 1018.0
20260905001007 56 0 2.0 4.0 0.00 0.00 0.00 88 1017.7
20260905000458 56 0 2.0 5.0 0.00 0.00 0.00 88 1017.6
20260904235949 56 0 2.0 4.0 0.00 0.00 0.00 88 1017.4
20260904235440 56 0 2.0 4.0 0.00 0.00 0.00 88 1017.2
20260904234931 56 0 2.0 5.0 0.00 0.00 0.00 88 1017.2
20260904234422 56 0 2.0 4.0 0.00 0.00 0.00 88 1017.1
20260904233405 57 0 2.0 6.0 0.00 0.00 0.00 88 1017.1
20260904232856 57 0 2.0 6.0 0.00 0.00 0.00 88 1017.1
20260904232347 57 0 2.0 3.0 0.00 0.00 0.00 87 1017.1
20260904231838 57 0 2.0 2.0 0.00 0.00 0.00 87 1017.0
20260904231329 57 0 1.0 2.0 0.00 0.00 0.00 87 1017.1
20260904230820 58 0 0.0 1.0 0.00 0.00 0.00 86 1016.9
20260904230311 58 0 1.0 3.0 0.00 0.00 0.00 86 1016.7
20260904225802 59 0 1.0 2.0 0.00 0.00 0.00 85 1016.8
20260904225253 60 0 1.0 2.0 0.00 0.00 0.00 86 1016.7
20260904224744 61 0 1.0 2.0 0.00 0.00 0.00 86 1016.4
20260904223726 61 0 2.0 5.0 0.00 0.00 0.00 87 1016.4
20260904223217 61 0 1.0 3.0 0.00 0.00 0.00 87 1016.3
20260904222708 61 0 2.0 4.0 0.00 0.00 0.00 87 1016.4
20260904222158 61 0 2.0 3.0 0.00 0.00 0.00 87 1016.4
20260904221649 61 0 2.0 3.0 0.00 0.00 0.00 87 1016.3
20260904221140 60 0 2.0 3.0 0.00 0.00 0.00 86 1016.3
20260904220631 61 0 2.0 3.0 0.00 0.00 0.00 86 1016.2
20260904220122 61 0 1.0 3.0 0.00 0.00 0.00 86 1016.3
20260904215613 61 0 2.0 4.0 0.00 0.00 0.00 86 1016.1
20260904215104 61 0 2.0 3.0 0.00 0.00 0.00 86 1016.2
20260904214555 61 0 1.0 2.0 0.00 0.00 0.00 86 1016.1
20260904214046 61 0 2.0 4.0 0.00 0.00 0.00 86 1015.9
20260904213537 61 0 2.0 4.0 0.00 0.00 0.00 85 1015.9
20260904213028 62 0 2.0 6.0 0.00 0.00 0.00 85 1015.9
20260904212519 62 0 2.0 3.0 0.00 0.00 0.00 85 1015.8
20260904212010 62 0 2.0 4.0 0.00 0.00 0.00 85 1016.0
20260904211500 62 0 2.0 4.0 0.00 0.00 0.00 85 1015.8
20260904210951 63 0 3.0 5.0 0.00 0.00 0.00 85 1015.7
20260904210442 63 0 3.0 7.0 0.00 0.00 0.00 85 1015.8
20260904205933 63 0 4.0 7.0 0.00 0.00 0.00 85 1015.8
20260904205424 63 0 6.0 15.0 0.00 0.00 0.00 85 1015.8
20260904204915 63 0 5.0 10.0 0.00 0.00 0.00 85 1015.5
20260904204405 63 0 6.0 0.0 0.00 0.00 0.00 85 1015.3
20260904203856 63 0 5.0 11.0 0.00 0.00 0.00 85 1015.4
20260904203347 63 0 7.0 17.0 0.00 0.00 0.00 85 1015.4
20260904202838 63 0 5.0 12.0 0.00 0.00 0.00 86 1015.4
20260904202329 63 0 6.0 0.0 0.00 0.00 0.00 86 1015.5
20260904201820 63 0 5.0 9.0 0.00 0.00 0.00 86 1015.4
20260904201311 63 0 5.0 7.0 0.00 0.00 0.00 86 1015.6
20260904200801 63 0 5.0 11.0 0.00 0.00 0.00 86 1015.4
20260904200252 63 0 6.0 12.0 0.00 0.00 0.00 87 1015.4
20260904195743 63 0 6.0 10.0 0.00 0.00 0.00 87 1015.5
20260904195234 63 0 6.0 13.0 0.00 0.00 0.00 87 1015.6
20260904194725 63 0 5.0 0.0 0.00 0.00 0.00 87 1015.5
20260904193707 62 0 5.0 0.0 0.00 0.00 0.00 88 1015.5
20260904193157 62 0 6.0 10.0 0.00 0.00 0.00 88 1015.5
20260904192648 62 0 7.0 13.0 0.00 0.00 0.00 88 1015.6
20260904192139 62 0 6.0 12.0 0.00 0.00 0.00 88 1015.5
20260904191121 62 0 5.0 11.0 0.00 0.00 0.00 89 1015.5
20260904190612 62 0 6.0 8.0 0.00 0.00 0.00 89 1015.5
20260904185554 62 0 4.0 0.0 0.00 0.00 0.00 89 1015.5
20260904185044 62 0 6.0 10.0 0.00 0.00 0.00 89 1015.5
20260904184536 62 0 5.0 12.0 0.00 0.00 0.00 90 1015.5
20260904184026 62 0 6.0 14.0 0.00 0.00 0.00 90 1015.7
20260904183517 62 0 5.0 10.0 0.00 0.00 0.00 90 1015.7
20260904183008 62 0 5.0 8.0 0.00 0.00 0.00 90 1015.7
20260904181950 62 0 6.0 16.0 0.00 0.00 0.00 90 1015.8
20260904181441 62 0 4.0 8.0 0.00 0.00 0.00 91 1015.9
20260904180932 62 0 7.0 15.0 0.00 0.00 0.00 91 1015.8
20260904180422 62 0 5.0 12.0 0.00 0.00 0.00 91 1015.8
20260904175404 62 0 5.0 10.0 0.00 0.00 0.00 91 1015.7
20260904174855 62 0 5.0 11.0 0.00 0.00 0.00 92 1015.7
20260904174346 61 0 5.0 14.0 0.00 0.00 0.00 92 1015.6
20260904173837 61 0 5.0 12.0 0.00 0.00 0.00 92 1015.6
20260904173328 61 0 6.0 12.0 0.00 0.00 0.00 92 1015.6
20260904172819 61 0 6.0 9.0 0.00 0.00 0.00 92 1015.6
20260904171252 61 0 6.0 13.0 0.00 0.00 0.00 93 1015.7
20260904170742 61 0 5.0 10.0 0.00 0.00 0.00 93 1015.7
20260904170234 61 0 6.0 8.0 0.00 0.00 0.00 93 1015.6
20260904165724 61 0 5.0 8.0 0.00 0.00 0.00 93 1015.7
20260904165215 61 0 5.0 9.0 0.00 0.00 0.00 93 1015.6
20260904164706 61 0 5.0 7.0 0.00 0.00 0.00 94 1015.5
20260904164157 61 0 7.0 15.0 0.00 0.00 0.00 94 1015.6
20260904163648 61 0 4.0 7.0 0.00 0.00 0.00 94 1015.6
20260904162630 61 0 5.0 8.0 0.00 0.00 0.00 94 1015.6
20260904162121 61 0 4.0 0.0 0.00 0.00 0.00 95 1015.7
20260904161612 61 0 4.0 12.0 0.00 0.00 0.00 95 1015.8
20260904161103 61 0 3.0 7.0 0.00 0.00 0.00 95 1015.9